Volver al catálogo

COSMOS 1150

ActivoNavegaciónPO
NORAD 11667·PAYLOAD·🇷🇺 Russia

Lanzado Jan 14, 1980 desde Plesetsk Cosmodrome

Loading…

Próximos Pases (próximas 24 horas)

TLE

ActualizadoSource: Space-Track

Época: Sep 14, 2026, 14:31 UTC

1 11667U 80003A   26257.60492576  .00000054  00000-0  41309-4 0  9993
2 11667  82.9526 112.6886 0032946  36.9526 340.6141 13.73684527334647

Sigue COSMOS 1150 en tiempo real con AllMySat

Download on the App Store